Regional Weather Roundup
Issued by NWS

Home | Current Version | Previous Version | Graphics & Text | Print | Product List | Glossary On
Versions: 1 2 3 4 5 6 7 8 9 10 11 12 13 14 15 16 17 18 19 20 21 22 23 24 25 26 27 28 29 30 31 32 33 34 35 36 37 38 39 40 41 42 43 44 45 46 47 48 49 50
000
ASUS45 KABQ 160610
RWRNM
WEATHER ROUNDUP FOR NEW MEXICO
NATIONAL WEATHER SERVICE ALBUQUERQUE NM
1200 AM MDT WED APR 16 2014

NOTE: "FAIR" MEANS FEW OR NO CLOUDS BELOW 12,000 FEET AGL WITH NO
       SIGNIFICANT WEATHER OR OBSTRUCTIONS TO VISION.

      THIS PRODUCT IS RELEASED AS TWO VERSIONS.  ONE VERSION NEAR
      THE TOP OF THE HOUR CONTAINING PRELIMINARY DATA FROM ALBUQUERQUE
      AND OTHER STATIONS.  A FINAL VERSION WITH ADDITIONAL DATA IS
      ISSUED ABOUT 10 MINUTES AFTER THE HOUR.

NMZ501-503-504-510>518-160700-
NORTHWEST PLATEAU/NORTHCENTRAL MOUNTAINS

CITY           SKY/WX    TMP DP  RH WIND       PRES   REMARKS
FARMINGTON     CLEAR     36   5  27 N6        29.90F WCI  31
6HR MIN TEMP:  36; 6HR MAX TEMP:  62;

LOS ALAMOS     CLEAR     48  10  21 SW9       29.98S
SANTA FE       CLEAR     48   8  19 W14       29.92F
6HR MIN TEMP:  44; 6HR MAX TEMP:  62;

TAOS           CLEAR     34   0  23 N8        29.98F WCI  27
ANGEL FIRE     FAIR      43  -3  14 W3G17     29.95R

$$
NMZ402-403-502-505>509-160700-
WESTCENTRAL MOUNTAINS/SOUTHWEST MOUNTAINS

CITY           SKY/WX    TMP DP  RH WIND       PRES   REMARKS
GALLUP         PTCLDY    36  -4  18 NE3       29.99S
6HR MIN TEMP:  34; 6HR MAX TEMP:  62;

GRANTS         PTCLDY    38   0  19 NW6       29.99S WCI  34
SILVER CITY    CLEAR     45   7  21 N10       30.00F

$$
NMZ407-409-411-412-160700-
SOUTHERN DESERTS

CITY           SKY/WX    TMP DP  RH WIND       PRES   REMARKS
LORDSBURG      FAIR      52   9  17 S9        29.92F
DEMING         CLEAR     50   5  16 NE7       29.93F
6HR MIN TEMP:  50; 6HR MAX TEMP:  70;

LAS CRUCES     PTCLDY    57   5  12 S6        29.95S
HOLLOMAN AFB   MOCLDY    55   7  14 S6        29.92F
ALAMOGORDO     MOCLDY    57   1  10 S9        29.93S
T OR C         CLEAR     54   8  16 S6        29.93F
6HR MIN TEMP:  53; 6HR MAX TEMP:  68;


$$
NMZ519>523-160700-
CENTRAL VALLEYS/CENTRAL HIGHLANDS

CITY           SKY/WX    TMP DP  RH WIND       PRES   REMARKS
ALBUQUERQUE    PTCLDY    54   8  16 S15       29.92S
6HR MIN TEMP:  54; 6HR MAX TEMP:  68;

DOUBLE EAGLE   PTCLDY    40   8  26 SW9       29.93F WCI  35
MORIARTY ARPT  FAIR      37   9  31 CALM      29.96S
6HR MIN TEMP:  37; 6HR MAX TEMP:  64;

CLINES CORNERS CLEAR     42   9  25 SW17      29.94F
6HR MIN TEMP:  41; 6HR MAX TEMP:  59;

BELEN          FAIR      52   9  18 S13       29.92F
6HR MIN TEMP:  52; 6HR MAX TEMP:  68;

SOCORRO        FAIR      51  11  19 SE10      29.93R
6HR MIN TEMP:  51; 6HR MAX TEMP:  68;


$$
NMZ524>526-539-540-160700-
SOUTHCENTRAL MOUNTAINS

CITY           SKY/WX    TMP DP  RH WIND       PRES   REMARKS
RUIDOSO        PTCLDY    48   5  17 SW14G21   30.03S

$$
NMZ527>531-160700-
NORTHEAST HIGHLANDS/NORTHEAST PLAINS

CITY           SKY/WX    TMP DP  RH WIND       PRES   REMARKS
LAS VEGAS      CLEAR     43  12  28 SW14      29.92F
6HR MIN TEMP:  42; 6HR MAX TEMP:  60;

RATON          PTCLDY    44   8  23 S14       29.82F
6HR MIN TEMP:  38; 6HR MAX TEMP:  65;

CLAYTON        PTCLDY    51  12  21 SW13      29.78R
6HR MIN TEMP:  50; 6HR MAX TEMP:  65;


$$
NMZ532>537-160700-
EASTCENTRAL PLAINS

CITY           SKY/WX    TMP DP  RH WIND       PRES   REMARKS
TUCUMCARI      CLOUDY    57   8  14 SW24G32   29.82F
6HR MIN TEMP:  57; 6HR MAX TEMP:  67;

CANNON AFB     MOCLDY    52   4  14 SW15      29.90S
6HR MIN TEMP:  52; 6HR MAX TEMP:  63;

CLOVIS AIRPORT MOCLDY    52   7  16 S16       29.92S

$$
NMZ028-029-538-160700-
SOUTHEAST PLAINS

CITY           SKY/WX    TMP DP  RH WIND       PRES   REMARKS
ROSWELL        MOCLDY    51   5  15 S14       29.90S
6HR MIN TEMP:  51; 6HR MAX TEMP:  70;

ARTESIA        PTCLDY    52   5  15 SE13G18   29.92S
CARLSBAD       MOCLDY    52   4  14 S8        29.92F
6HR MIN TEMP:  51; 6HR MAX TEMP:  70;

HOBBS          FAIR      50   5  16 S17       29.95S


$$



USA.gov is the U.S. government's official web portal to all federal, state and local government web resources and services.